Weather Roundup
Issued by NWS Springfield, MO

Home | Current Version | Previous Version | Text Only | Print | Product List | Glossary On
Versions: 1 2 3 4 5 6 7 8 9 10 11 12 13 14 15 16 17 18 19 20 21 22 23 24 25 26 27 28 29 30 31 32 33 34 35 36 37 38 39 40 41 42 43 44 45 46 47 48 49 50
000
NZUS99 KSGF 211907
HRRSGF

HOURLY WEATHER
NATIONAL WEATHER SERVICE SPRINGFIELD MO
200 PM CDT FRI JUL 21 2017

......SGF CWA......

CITY           SKY/WX    TMP DP  RH WIND       PRES   REMARKS
SPRINGFIELD    MOSUNNY   94  71  47 SW9G21    30.01F HX 101
JOPLIN         SUNNY     97  73  45 S15       29.98F HX 107
WEST PLAINS    MOSUNNY   93  71  48 VRB6G18   30.05F HX 100
ROLLA          SUNNY     93  71  48 SW9       30.00F HX 100
OSAGE BEACH    MOSUNNY   96  69  41 SW6       29.98F HX 102
BRANSON        MOSUNNY   91  70  49 W3        30.05F HX  97

......SURROUNDING SGF CWA......

CITY           SKY/WX    TMP DP  RH WIND       PRES   REMARKS
CHANUTE        SUNNY     97  72  44 S9G20     29.94F HX 105
PARSONS        SUNNY     96  73  47 S10       29.96F HX 105
COFFEYVILLE    SUNNY     96  74  48 S12G21    29.94F HX 107
EMPORIA        SUNNY    100  69  36 S18G26    29.90F HX 106
GROVE OK       SUNNY     95  73  49 S10       30.00F HX 105
ROGERS AR      MOSUNNY   93  70  46 S14       30.04F HX  99
SILOAM SPRINGS MOSUNNY   93  72  49 S13       30.02F HX 100
HARRISON AR    SUNNY     92  72  51 VRB5      30.05F HX  99
NEAR YELLVILLE MOSUNNY   93  72  49 E6        30.00F HX 100

......KANSAS AND MISSOURI......

CITY           SKY/WX    TMP DP  RH WIND       PRES   REMARKS
KANSAS CTY INT MOSUNNY   96  75  50 S16       29.90F HX 108
DOWNTOWN KC    SUNNY     97  76  50 S13       29.88F HX 110
COLUMBIA       SUNNY     97  74  47 S7        29.96F HX 108
SEDALIA        SUNNY     96  77  54 S12       29.96F HX 111
ST JOSEPH      SUNNY     94  79  61 S15       29.85F HX 111
ST LOUIS       MOSUNNY  101  69  35 W9G16     29.97F HX 107
SPIRIT OF STL  MOSUNNY   99  70  38 W10       29.94F HX 106
KIRKSVILLE     SUNNY     94  77  57 S13       29.92F HX 108
WICHITA        MOSUNNY  102  66  30 S12G25    29.90F HX 106
TOPEKA         SUNNY     98  76  49 S18G25    29.86F HX 112
OLATHE         SUNNY     92  76  59 S13G21    29.92F HX 104

......TENNESSEE......

CITY           SKY/WX    TMP DP  RH WIND       PRES   REMARKS
MEMPHIS        MOSUNNY   95  75  52 W7        30.01F HX 107
NASHVILLE      PTSUNNY   95  71  45 W5        30.04F HX 102

......ARKANSAS.......

CITY           SKY/WX    TMP DP  RH WIND       PRES   REMARKS
FAYETTEVILLE   MOSUNNY   91  73  55 S13       30.04F HX  99
FT SMITH       SUNNY     97  70  41 SW9       29.99F HX 103
LITTLE ROCK    MOSUNNY   94  75  54 SW5       30.00F HX 105

......OKLAHOMA.......

CITY           SKY/WX    TMP DP  RH WIND       PRES   REMARKS
TULSA          MOSUNNY   99  68  36 S13G22    29.93F HX 104
PONCA CITY     MOSUNNY  100  66  32 S8        29.91F HX 104
MCALESTER      SUNNY     96  74  48 S9        29.99F HX 107
OKLAHOMA CITY  MOSUNNY   99  64  31 SW14G20   29.96F HX 101

......IOWA............

CITY           SKY/WX    TMP DP  RH WIND       PRES   REMARKS
DES MOINES     MOSUNNY   98  73  44 S14       29.82F HX 108
QUAD CITIES    SUNNY     90  78  68 SE14      29.90F HX 104

......ILLINOIS........

CITY           SKY/WX    TMP DP  RH WIND       PRES   REMARKS
QUINCY         SUNNY     97  73  45 SW12      29.93F HX 107
CHICAGO        PTSUNNY   87  71  58 S8        29.96S HX  93




USA.gov is the U.S. government's official web portal to all federal, state and local government web resources and services.